CZ-6A DEB

Satellite information

Favourite Embed

Satellite Type and Status

DEBRISIN ORBIT

Key statistics

Satellite CZ-6A DEB at a glance.

Uptime

1129

Days in orbit

Revolutions

≈ 14.9

Per day

Orbit

SSO

Sun Synchronous Orbit

Inclination

98.7

Latest

Satellite identification and parameters

Extended collection of information and parameters for CZ-6A DEB.

Object identification

Identified? True

Debris? True

Object name: CZ-6A DEB

International designator: 2022-151WD

Object number (NORAD): 55212

Object ID (CCSDS): 55212

Country: PEOPLES REPUBLIC OF CHINA (PRC)

Current information (Y/N): Y

RCS size: SMALL

Orbital parameters

Period: 96.842 minutes

Inclination: 98.6529 deg

SMA: 6985.582 km

Apoapsis: 638.743 km

Periapsis: 576.151 km

RAAN: 48.8695 deg

Eccentricy: 0.00448004

Argument of periapsis: 113.7693 deg

Mean anomaly: 246.8228 deg

Mean motion: 14.86958623 rev/day

Mean motion (dot): 0.00063042 rev/day2

B* drag term: 0.00686761 1/REarth

Two-line elements (TLE)

Creation date: Dec. 13, 2025, 5:47 p.m.

Reference frame: TEME

Reference center: EARTH

Epoch: Dec. 13, 2025, 3:18 a.m. UTC

TLE line 0: 0 CZ-6A DEB

TLE line 1: 1 55212U 22151WD 25347.13807965 .00063042 00000-0 68676-2 0 9996

TLE line 2: 2 55212 98.6529 48.8695 0044800 113.7693 246.8228 14.86958623158167

Live tracking on map

Real-time ground track for satellite CZ-6A DEB.

In-orbit conjunctions

A list of the most updated potential collisions computed for object CZ-6A DEB.

Target Orbit TCA Probability of collision Miss distance Type
COSMOS 2251 DEB LEO 2024-12-24 23:43:30 0.0001450747 115.0 (m) DEBRIS
FENGYUN 1C DEB SSO 2024-11-11 10:38:03 0.0001049304 886.0 (m) DEBRIS

Associated space launch

Chinese satellite reported for atmospheric/ocean/environmental/spatial parameter research purposes, details TBD.

CZ-6A DEB was lifted into orbit during the mission ‘Long March 6A | Yunhai 3’, on board a Long March 6A space rocket.

The launch took place on Nov. 11, 2022, 10:52 p.m. from Launch Complex 9A.

For more information about the launch, click the button.

Launch to space Long March 6A | Yunhai 3
Long March 6A | Yunhai 3

Agency: N/A

Status: Launch Successful

Launch date: Nov. 11, 2022, 10:52 p.m. UTC

Rocket: Long March 6A

Launch pad: Launch Complex 9A

Location: Taiyuan Satellite Launch Center, People's Republic of China

...

Latest news about this satellite

There are no fresh news available about this satellite. Check back as we update our databases every day.


Newsletter sign-up

Weekly statistics, charts and insights to help you stay on top of the space industry.